• In India
  • List of Countries
  • For 7 days
  • Water Temperature
  • Satellite Maps
  • Weather Map
  • Weather Widgets
  • user-avatar
    Login

    Hourly Weather Tirana

    Today, 23 October, Monday

    Time Temperature Precipitation Wind Pressure Humidity
    00:00 +16°C° 0.6 mm 6 mps 750 mmHg 74%
    01:00 +17°C° 0 mm 7 mps 749 mmHg 70%
    02:00 +17°C° 1.9 mm 7 mps 748 mmHg 72%
    03:00 +17°C° 1.9 mm 6 mps 748 mmHg 74%
    04:00 +17°C° 1.9 mm 6 mps 747 mmHg 76%
    05:00 +16°C° 0.8 mm 5 mps 747 mmHg 78%
    06:00 +16°C° 0.8 mm 5 mps 746 mmHg 80%
    07:00 +17°C° 0 mm 4 mps 746 mmHg 82%
    08:00 +18°C° 0.8 mm 4 mps 746 mmHg 79%
    09:00 +18°C° 0.8 mm 4 mps 745 mmHg 76%
    10:00 +19°C° 0.8 mm 4 mps 745 mmHg 72%
    11:00 +19°C° 1.2 mm 4 mps 745 mmHg 70%
    12:00 +19°C° 1.2 mm 4 mps 745 mmHg 69%
    13:00 +19°C° 1.2 mm 5 mps 744 mmHg 67%
    14:00 +18°C° 1.1 mm 4 mps 744 mmHg 71%
    15:00 +17°C° 1.1 mm 4 mps 744 mmHg 74%
    16:00 +16°C° 1.1 mm 3 mps 744 mmHg 78%
    17:00 +14°C° 0.9 mm 3 mps 744 mmHg 80%
    18:00 +14°C° 0.9 mm 3 mps 744 mmHg 82%
    19:00 +14°C° 0.9 mm 2 mps 745 mmHg 84%
    20:00 +13°C° 0.4 mm 3 mps 745 mmHg 84%
    21:00 +13°C° 0.4 mm 3 mps 745 mmHg 84%
    22:00 +12°C° 0.4 mm 3 mps 745 mmHg 84%
    23:00 +12°C° 0.3 mm 3 mps 745 mmHg 83%

    Tomorrow, 24 October, Tuesday

    Time Temperature Precipitation Wind Pressure Humidity
    00:00 +12°C° 0.3 mm 4 mps 745 mmHg 83%
    01:00 +12°C° 0.3 mm 4 mps 745 mmHg 82%
    02:00 +11°C° 0.1 mm 4 mps 744 mmHg 83%
    03:00 +11°C° 0.1 mm 4 mps 744 mmHg 83%
    04:00 +11°C° 0.1 mm 4 mps 744 mmHg 83%
    05:00 +10°C° 0.1 mm 5 mps 744 mmHg 81%
    06:00 +10°C° 0.1 mm 5 mps 744 mmHg 80%
    07:00 +10°C° 0.1 mm 5 mps 745 mmHg 79%
    08:00 +12°C° 0.1 mm 5 mps 745 mmHg 74%
    09:00 +13°C° 0.1 mm 6 mps 745 mmHg 68%
    10:00 +14°C° 0.1 mm 6 mps 745 mmHg 63%
    11:00 +14°C° 0.1 mm 6 mps 746 mmHg 61%
    12:00 +15°C° 0.1 mm 6 mps 746 mmHg 60%
    13:00 +15°C° 0.1 mm 7 mps 746 mmHg 58%
    14:00 +14°C° 0.1 mm 6 mps 746 mmHg 61%
    15:00 +14°C° 0.1 mm 6 mps 746 mmHg 64%
    16:00 +13°C° 0.1 mm 6 mps 746 mmHg 67%
    17:00 +11°C° 0 mm 6 mps 747 mmHg 69%
    18:00 +11°C° 0 mm 6 mps 747 mmHg 71%
    19:00 +10°C° 0 mm 6 mps 748 mmHg 73%
    20:00 +10°C° 0 mm 6 mps 748 mmHg 73%
    21:00 +9°C° 0 mm 6 mps 749 mmHg 73%
    22:00 +9°C° 0 mm 5 mps 749 mmHg 73%
    23:00 +9°C° 0 mm 5 mps 750 mmHg 73%

    Day after tomorrow, 25 October, Wednesday

    Time Temperature Precipitation Wind Pressure Humidity
    00:00 +9°C° 0 mm 6 mps 750 mmHg 74%
    01:00 +9°C° 0 mm 6 mps 751 mmHg 74%
    02:00 +9°C° 0 mm 6 mps 751 mmHg 75%
    03:00 +9°C° 0 mm 6 mps 751 mmHg 76%
    04:00 +9°C° 0 mm 5 mps 751 mmHg 76%
    05:00 +10°C° 0 mm 6 mps 752 mmHg 76%
    06:00 +10°C° 0 mm 6 mps 752 mmHg 76%
    07:00 +10°C° 0 mm 6 mps 753 mmHg 76%
    08:00 +14°C° 0 mm 6 mps 753 mmHg 67%
    09:00 +16°C° 0 mm 6 mps 754 mmHg 58%
    10:00 +18°C° 0 mm 7 mps 754 mmHg 50%
    11:00 +20°C° 0 mm 7 mps 754 mmHg 47%
    12:00 +21°C° 0 mm 7 mps 754 mmHg 44%
    13:00 +22°C° 0 mm 8 mps 755 mmHg 41%
    14:00 +21°C° 0 mm 7 mps 755 mmHg 45%
    15:00 +20°C° 0 mm 7 mps 755 mmHg 48%
    16:00 +18°C° 0 mm 7 mps 755 mmHg 52%
    17:00 +17°C° 0 mm 7 mps 756 mmHg 56%
    18:00 +16°C° 0 mm 7 mps 757 mmHg 60%
    19:00 +14°C° 0 mm 7 mps 758 mmHg 63%
    20:00 +14°C° 0 mm 7 mps 758 mmHg 65%
    21:00 +13°C° 0 mm 6 mps 759 mmHg 67%
    22:00 +13°C° 0 mm 6 mps 759 mmHg 68%
    23:00 +13°C° 0 mm 6 mps 760 mmHg 70%

    26 October, Thursday

    Time Temperature Precipitation Wind Pressure Humidity
    00:00 +11°C° 0 mm 6 mps 760 mmHg 71%
    01:00 +11°C° 0 mm 6 mps 760 mmHg 72%
    02:00 +12°C° 0 mm 5 mps 760 mmHg 72%
    03:00 +12°C° 0 mm 5 mps 760 mmHg 72%
    04:00 +12°C° 0 mm 5 mps 760 mmHg 72%
    05:00 +12°C° 0 mm 5 mps 761 mmHg 71%
    06:00 +12°C° 0 mm 4 mps 761 mmHg 70%
    07:00 +12°C° 0 mm 4 mps 761 mmHg 70%
    08:00 +15°C° 0 mm 4 mps 761 mmHg 61%
    09:00 +18°C° 0 mm 3 mps 761 mmHg 53%
    10:00 +21°C° 0 mm 3 mps 761 mmHg 45%
    11:00 +22°C° 0 mm 3 mps 761 mmHg 43%
    12:00 +24°C° 0 mm 3 mps 761 mmHg 40%
    13:00 +25°C° 0 mm 3 mps 760 mmHg 37%
    14:00 +23°C° 0 mm 4 mps 760 mmHg 42%
    15:00 +22°C° 0 mm 4 mps 760 mmHg 46%
    16:00 +21°C° 0 mm 4 mps 760 mmHg 51%
    17:00 +20°C° 0 mm 4 mps 760 mmHg 54%
    18:00 +18°C° 0 mm 4 mps 760 mmHg 58%
    19:00 +17°C° 0 mm 3 mps 761 mmHg 61%
    20:00 +17°C° 0 mm 3 mps 761 mmHg 61%
    21:00 +16°C° 0 mm 3 mps 761 mmHg 60%
    22:00 +16°C° 0 mm 2 mps 761 mmHg 60%
    23:00 +16°C° 0 mm 2 mps 761 mmHg 59%

    27 October, Friday

    Time Temperature Precipitation Wind Pressure Humidity
    00:00 +15°C° 0 mm 2 mps 761 mmHg 59%
    01:00 +15°C° 0 mm 2 mps 760 mmHg 59%
    02:00 +15°C° 0 mm 2 mps 760 mmHg 58%
    03:00 +15°C° 0 mm 2 mps 760 mmHg 58%
    04:00 +15°C° 0 mm 2 mps 759 mmHg 58%
    05:00 +15°C° 0 mm 1 mps 759 mmHg 57%
    06:00 +15°C° 0 mm 1 mps 759 mmHg 56%
    07:00 +15°C° 0 mm 1 mps 759 mmHg 55%
    08:00 +19°C° 0 mm 1 mps 759 mmHg 49%
    09:00 +21°C° 0 mm 1 mps 758 mmHg 43%
    10:00 +23°C° 0 mm 1 mps 758 mmHg 37%
    11:00 +24°C° 0 mm 1 mps 757 mmHg 37%
    12:00 +24°C° 0 mm 2 mps 757 mmHg 36%
    13:00 +25°C° 0 mm 2 mps 756 mmHg 36%
    14:00 +24°C° 0 mm 2 mps 756 mmHg 42%
    15:00 +21°C° 0 mm 2 mps 755 mmHg 48%
    16:00 +20°C° 0 mm 2 mps 755 mmHg 54%
    17:00 +20°C° 0 mm 1 mps 754 mmHg 59%
    18:00 +19°C° 0 mm 1 mps 754 mmHg 64%
    19:00 +15°C° 0 mm 0 mps 754 mmHg 69%
    20:00 +16°C° 0 mm 1 mps 754 mmHg 68%
    21:00 +16°C° 0 mm 1 mps 753 mmHg 67%
    22:00 +16°C° 0 mm 1 mps 753 mmHg 65%
    23:00 +15°C° 0 mm 1 mps 753 mmHg 65%

    28 October, Saturday

    Time Temperature Precipitation Wind Pressure Humidity
    00:00 +15°C° 0 mm 1 mps 752 mmHg 65%
    01:00 +15°C° 0 mm 1 mps 752 mmHg 64%
    02:00 +14°C° 0 mm 1 mps 751 mmHg 63%
    03:00 +14°C° 0 mm 1 mps 751 mmHg 63%
    04:00 +14°C° 0 mm 1 mps 751 mmHg 62%
    05:00 +14°C° 0 mm 1 mps 751 mmHg 61%
    06:00 +15°C° 0 mm 2 mps 751 mmHg 59%
    07:00 +15°C° 0 mm 2 mps 751 mmHg 58%
    08:00 +16°C° 0 mm 2 mps 751 mmHg 53%
    09:00 +18°C° 0 mm 2 mps 751 mmHg 49%
    10:00 +19°C° 0 mm 2 mps 751 mmHg 44%
    11:00 +20°C° 0 mm 2 mps 751 mmHg 44%
    12:00 +20°C° 0 mm 2 mps 750 mmHg 43%
    13:00 +20°C° 0 mm 3 mps 750 mmHg 43%
    14:00 +19°C° 0 mm 3 mps 750 mmHg 47%
    15:00 +19°C° 0 mm 3 mps 750 mmHg 51%
    16:00 +18°C° 0 mm 3 mps 750 mmHg 55%
    17:00 +17°C° 0 mm 4 mps 750 mmHg 57%
    18:00 +15°C° 0 mm 4 mps 751 mmHg 60%
    19:00 +14°C° 0 mm 4 mps 751 mmHg 62%
    20:00 +14°C° 0 mm 5 mps 751 mmHg 63%
    21:00 +13°C° 0 mm 5 mps 751 mmHg 65%
    22:00 +13°C° 0 mm 5 mps 751 mmHg 66%
    23:00 +13°C° 0 mm 5 mps 751 mmHg 66%

    29 October, Sunday

    Time Temperature Precipitation Wind Pressure Humidity
    00:00 +12°C° 0 mm 5 mps 751 mmHg 66%
    01:00 +12°C° 0 mm 5 mps 751 mmHg 66%
    02:00 +10°C° 0 mm 6 mps 751 mmHg 67%
    03:00 +10°C° 0 mm 6 mps 751 mmHg 68%
    04:00 +9°C° 0 mm 6 mps 751 mmHg 69%
    05:00 +9°C° 0 mm 6 mps 751 mmHg 69%
    06:00 +9°C° 0 mm 6 mps 751 mmHg 69%
    07:00 +9°C° 0 mm 6 mps 752 mmHg 69%
    08:00 +10°C° 0 mm 6 mps 752 mmHg 60%
    09:00 +13°C° 0 mm 6 mps 752 mmHg 52%
    10:00 +14°C° 0 mm 6 mps 752 mmHg 43%
    11:00 +15°C° 0 mm 6 mps 752 mmHg 41%
    12:00 +16°C° 0 mm 7 mps 752 mmHg 39%
    13:00 +16°C° 0 mm 7 mps 752 mmHg 37%
    14:00 +16°C° 0 mm 7 mps 752 mmHg 39%
    15:00 +15°C° 0 mm 8 mps 752 mmHg 42%
    16:00 +13°C° 0 mm 8 mps 752 mmHg 45%
    17:00 +12°C° 0 mm 7 mps 753 mmHg 49%
    18:00 +11°C° 0 mm 7 mps 753 mmHg 52%
    19:00 +9°C° 0 mm 7 mps 754 mmHg 56%
    20:00 +9°C° 0 mm 6 mps 754 mmHg 57%
    21:00 +8°C° 0 mm 6 mps 754 mmHg 57%
    22:00 +8°C° 0 mm 6 mps 754 mmHg 58%
    23:00 +8°C° 0 mm 5 mps 754 mmHg 58%
    Show more